カタログに戻る

SL-8 R/B

運用中PO
NORAD 17526·ROCKET BODY·🇷🇺 Russia

打ち上げ Feb 18, 1987 から Plesetsk Cosmodrome

Loading…

次のパス (今後24時間)

TLE

最新Source: Space-Track

元期: Sep 14, 2026, 19:44 UTC

1 17526U 87017B   26257.82257977 -.00000005  00000-0 -19750-4 0  9996
2 17526  82.9007  35.9519 0039175 233.9686 125.7838 13.77236410970658

AllMySatでSL-8 R/Bをリアルタイム追跡

Download on the App Store